| time (UTC) | temp F | wind direction | speed knots | gust knots | rain 1hr in | rain 24hr in | rain mn in | humidity % | barometer mb |
| 20260508035607 | 42 | 240 | 0.9 | 0.9 | 0.00 | 0.11 | 0.11 | 71 | 1007.3 |
| 20260508035104 | 42 | 135 | 0.0 | 0.9 | 0.00 | 0.11 | 0.11 | 67 | 1007.4 |
| 20260508034601 | 43 | 89 | 0.0 | 1.7 | 0.00 | 0.11 | 0.11 | 63 | 1007.5 |
| 20260508034058 | 44 | 87 | 0.9 | 1.7 | 0.00 | 0.11 | 0.11 | 60 | 1007.6 |
| 20260508033555 | 44 | 137 | 0.0 | 0.9 | 0.00 | 0.11 | 0.11 | 60 | 1007.6 |
| 20260508033054 | 43 | 294 | 0.0 | 1.7 | 0.00 | 0.11 | 0.11 | 61 | 1007.6 |
| 20260508032549 | 42 | 262 | 1.7 | 1.7 | 0.00 | 0.11 | 0.11 | 66 | 1007.4 |
| 20260508032047 | 42 | 332 | 1.7 | 2.6 | 0.00 | 0.11 | 0.11 | 67 | 1007.3 |
| 20260508031544 | 43 | 339 | 1.7 | 1.7 | 0.00 | 0.11 | 0.11 | 64 | 1007.4 |
| 20260508031040 | 44 | 22 | 0.0 | 1.7 | 0.00 | 0.11 | 0.11 | 61 | 1007.5 |
| 20260508030536 | 45 | 18 | 0.9 | 2.6 | 0.00 | 0.11 | 0.11 | 56 | 1007.7 |
| 20260508030035 | 46 | 70 | 1.7 | 1.7 | 0.00 | 0.11 | 0.11 | 54 | 1007.4 |
| 20260508025530 | 46 | 264 | 0.0 | 3.5 | 0.00 | 0.11 | 0.11 | 55 | 1007.2 |
| 20260508025028 | 46 | 112 | 1.7 | 2.6 | 0.00 | 0.11 | 0.11 | 54 | 1007.2 |
| 20260508024524 | 45 | 338 | 2.6 | 2.6 | 0.00 | 0.11 | 0.11 | 55 | 1007.3 |
| 20260508024021 | 45 | 181 | 1.7 | 2.6 | 0.00 | 0.11 | 0.11 | 57 | 1007.1 |
| 20260508023517 | 44 | 294 | 0.0 | 2.6 | 0.00 | 0.11 | 0.11 | 59 | 1007.2 |
| 20260508023015 | 43 | 347 | 0.0 | 1.7 | 0.00 | 0.11 | 0.11 | 64 | 1007.4 |
| 20260508022510 | 44 | 273 | 0.0 | 2.6 | 0.00 | 0.11 | 0.11 | 61 | 1007.4 |
| 20260508022008 | 44 | 250 | 0.9 | 1.7 | 0.00 | 0.11 | 0.11 | 60 | 1007.4 |
| 20260508021503 | 44 | 342 | 0.9 | 1.7 | 0.00 | 0.11 | 0.11 | 60 | 1007.3 |
| 20260508020959 | 44 | 41 | 1.7 | 2.6 | 0.00 | 0.11 | 0.11 | 61 | 1007.3 |
| 20260508020457 | 45 | 107 | 0.9 | 1.7 | 0.00 | 0.11 | 0.11 | 60 | 1007.2 |
| 20260508015954 | 45 | 60 | 1.7 | 2.6 | 0.00 | 0.11 | 0.11 | 60 | 1007.2 |
| 20260508015452 | 45 | 339 | 0.0 | 1.7 | 0.00 | 0.11 | 0.11 | 61 | 1007.4 |
| 20260508014949 | 45 | 306 | 1.7 | 3.5 | 0.00 | 0.11 | 0.11 | 58 | 1007.4 |
| 20260508014445 | 45 | 74 | 1.7 | 1.7 | 0.00 | 0.11 | 0.11 | 56 | 1007.5 |
| 20260508013941 | 45 | 69 | 1.7 | 1.7 | 0.00 | 0.11 | 0.11 | 55 | 1007.3 |
| 20260508013437 | 46 | 43 | 1.7 | 2.6 | 0.00 | 0.11 | 0.11 | 57 | 1007.4 |
| 20260508012935 | 47 | 83 | 1.7 | 2.6 | 0.00 | 0.11 | 0.11 | 53 | 1007.2 |
| 20260508012432 | 47 | 84 | 1.7 | 1.7 | 0.00 | 0.11 | 0.11 | 51 | 1007.4 |
| 20260508011929 | 48 | 58 | 1.7 | 3.5 | 0.00 | 0.11 | 0.11 | 50 | 1007.2 |
| 20260508011427 | 48 | 135 | 0.0 | 3.5 | 0.00 | 0.11 | 0.11 | 52 | 1007.1 |
| 20260508010924 | 48 | 150 | 1.7 | 3.5 | 0.00 | 0.11 | 0.11 | 51 | 1007.0 |
| 20260508010421 | 49 | 71 | 1.7 | 3.5 | 0.00 | 0.11 | 0.11 | 47 | 1007.0 |
| 20260508005918 | 49 | 313 | 2.6 | 3.5 | 0.00 | 0.11 | 0.11 | 48 | 1007.0 |
| 20260508005415 | 49 | 63 | 1.7 | 8.7 | 0.00 | 0.11 | 0.11 | 47 | 1006.9 |
| 20260508004911 | 50 | 32 | 1.7 | 4.3 | 0.00 | 0.11 | 0.11 | 47 | 1006.8 |
| 20260508004408 | 50 | 10 | 5.2 | 5.2 | 0.00 | 0.11 | 0.11 | 47 | 1006.7 |
| 20260508003904 | 50 | 291 | 2.6 | 3.5 | 0.00 | 0.11 | 0.11 | 47 | 1006.7 |
| 20260508003401 | 50 | 324 | 3.5 | 5.2 | 0.00 | 0.11 | 0.11 | 47 | 1006.6 |
| 20260508002858 | 50 | 334 | 6.1 | 7.8 | 0.00 | 0.11 | 0.11 | 46 | 1006.6 |
| 20260508002355 | 51 | 340 | 3.5 | 7.8 | 0.00 | 0.11 | 0.11 | 47 | 1006.6 |
| 20260508001851 | 51 | 340 | 6.1 | 10.4 | 0.00 | 0.11 | 0.11 | 46 | 1006.7 |
| 20260508001347 | 51 | 358 | 3.5 | 6.1 | 0.00 | 0.11 | 0.11 | 47 | 1006.5 |
| 20260508000844 | 51 | 359 | 5.2 | 5.2 | 0.00 | 0.11 | 0.11 | 47 | 1006.6 |
| 20260508000342 | 51 | 27 | 4.3 | 7.0 | 0.00 | 0.11 | 0.11 | 48 | 1006.5 |
| 20260507235837 | 51 | 18 | 7.8 | 9.6 | 0.00 | 0.11 | 0.11 | 47 | 1006.2 |
| 20260507235335 | 51 | 23 | 2.6 | 6.1 | 0.00 | 0.11 | 0.11 | 48 | 1006.4 |
| 20260507234831 | 51 | 19 | 2.6 | 3.5 | 0.00 | 0.11 | 0.11 | 48 | 1006.1 |
| 20260507234328 | 52 | 15 | 1.7 | 4.3 | 0.00 | 0.11 | 0.11 | 48 | 1006.2 |
| 20260507233824 | 52 | 24 | 2.6 | 6.1 | 0.00 | 0.11 | 0.11 | 47 | 1006.1 |
| 20260507233322 | 52 | 37 | 0.9 | 8.7 | 0.00 | 0.11 | 0.11 | 47 | 1006.1 |
| 20260507232820 | 53 | 346 | 1.7 | 7.8 | 0.00 | 0.11 | 0.11 | 47 | 1005.6 |
| 20260507232316 | 53 | 328 | 3.5 | 5.2 | 0.00 | 0.11 | 0.11 | 46 | 1005.9 |
| 20260507231813 | 54 | 15 | 3.5 | 7.8 | 0.00 | 0.11 | 0.11 | 45 | 1005.7 |
| 20260507231310 | 54 | 304 | 9.6 | 13.9 | 0.00 | 0.11 | 0.11 | 44 | 1005.7 |
| 20260507230806 | 54 | 338 | 3.5 | 13.0 | 0.00 | 0.11 | 0.11 | 45 | 1005.3 |
| 20260507230304 | 55 | 351 | 3.5 | 11.3 | 0.00 | 0.11 | 0.11 | 45 | 1005.2 |
| 20260507225803 | 55 | 346 | 10.4 | 12.2 | 0.00 | 0.11 | 0.11 | 44 | 1005.0 |
| 20260507225259 | 56 | 265 | 1.7 | 7.0 | 0.00 | 0.11 | 0.11 | 45 | 1005.0 |
| 20260507224755 | 56 | 295 | 2.6 | 13.0 | 0.00 | 0.11 | 0.11 | 44 | 1005.0 |
| 20260507224253 | 56 | 359 | 7.0 | 10.4 | 0.00 | 0.11 | 0.11 | 43 | 1004.7 |
| 20260507223749 | 57 | 340 | 5.2 | 10.4 | 0.00 | 0.11 | 0.11 | 43 | 1004.7 |
| 20260507223245 | 57 | 279 | 0.9 | 8.7 | 0.00 | 0.11 | 0.11 | 44 | 1004.7 |
| 20260507222743 | 58 | 290 | 6.1 | 7.8 | 0.00 | 0.11 | 0.11 | 43 | 1004.8 |
| 20260507222238 | 57 | 358 | 4.3 | 9.6 | 0.00 | 0.11 | 0.11 | 45 | 1004.7 |
| 20260507221736 | 57 | 339 | 5.2 | 13.0 | 0.00 | 0.11 | 0.11 | 44 | 1004.4 |
| 20260507221232 | 58 | 316 | 7.8 | 12.2 | 0.00 | 0.11 | 0.11 | 44 | 1004.5 |
| 20260507220728 | 58 | 359 | 4.3 | 13.0 | 0.00 | 0.11 | 0.11 | 45 | 1004.3 |
| 20260507220227 | 59 | 349 | 5.2 | 5.2 | 0.00 | 0.11 | 0.11 | 44 | 1004.5 |
| 20260507215722 | 60 | 328 | 5.2 | 10.4 | 0.00 | 0.11 | 0.11 | 42 | 1004.3 |
| 20260507215220 | 60 | 350 | 5.2 | 7.8 | 0.00 | 0.11 | 0.11 | 41 | 1004.1 |
| 20260507214717 | 60 | 320 | 2.6 | 13.0 | 0.00 | 0.11 | 0.11 | 42 | 1004.3 |
| 20260507214214 | 61 | 352 | 4.3 | 5.2 | 0.00 | 0.11 | 0.11 | 39 | 1004.2 |
| 20260507213709 | 60 | 304 | 3.5 | 9.6 | 0.00 | 0.11 | 0.11 | 39 | 1004.0 |
| 20260507213207 | 59 | 300 | 4.3 | 13.0 | 0.00 | 0.11 | 0.11 | 39 | 1003.8 |
| 20260507212703 | 59 | 306 | 4.3 | 15.6 | 0.00 | 0.11 | 0.11 | 41 | 1003.9 |
| 20260507212200 | 61 | 285 | 7.8 | 8.7 | 0.00 | 0.11 | 0.11 | 38 | 1003.8 |
| 20260507211657 | 61 | 330 | 4.3 | 9.6 | 0.00 | 0.11 | 0.11 | 37 | 1003.8 |
| 20260507211152 | 61 | 271 | 4.3 | 13.9 | 0.00 | 0.11 | 0.11 | 37 | 1003.6 |
| 20260507210650 | 61 | 336 | 5.2 | 7.0 | 0.00 | 0.11 | 0.11 | 37 | 1003.8 |
| 20260507210146 | 61 | 294 | 5.2 | 17.4 | 0.00 | 0.11 | 0.11 | 38 | 1003.8 |
| 20260507205643 | 62 | 110 | 2.6 | 7.0 | 0.00 | 0.11 | 0.11 | 40 | 1003.7 |
| 20260507205140 | 62 | 337 | 0.9 | 6.1 | 0.00 | 0.11 | 0.11 | 39 | 1003.5 |
| 20260507204636 | 61 | 302 | 6.1 | 8.7 | 0.00 | 0.11 | 0.11 | 40 | 1003.6 |
| 20260507204134 | 61 | 192 | 3.5 | 7.8 | 0.00 | 0.11 | 0.11 | 42 | 1003.4 |
| 20260507203631 | 62 | 289 | 5.2 | 11.3 | 0.00 | 0.11 | 0.11 | 40 | 1003.4 |
| 20260507203129 | 62 | 334 | 6.1 | 11.3 | 0.00 | 0.11 | 0.11 | 40 | 1003.2 |
| 20260507202624 | 62 | 269 | 2.6 | 9.6 | 0.00 | 0.11 | 0.11 | 42 | 1003.2 |
| 20260507202121 | 62 | 86 | 1.7 | 13.0 | 0.00 | 0.11 | 0.11 | 44 | 1003.1 |
| 20260507201616 | 62 | 321 | 1.7 | 9.6 | 0.00 | 0.11 | 0.11 | 42 | 1003.3 |
| 20260507201113 | 61 | 223 | 5.2 | 8.7 | 0.00 | 0.11 | 0.11 | 42 | 1003.2 |
| 20260507200608 | 62 | 208 | 5.2 | 8.7 | 0.00 | 0.11 | 0.11 | 42 | 1003.4 |
| 20260507200105 | 61 | 186 | 2.6 | 11.3 | 0.00 | 0.11 | 0.11 | 43 | 1003.4 |
| 20260507195602 | 61 | 258 | 1.7 | 11.3 | 0.00 | 0.11 | 0.11 | 44 | 1003.3 |
| 20260507195059 | 62 | 298 | 5.2 | 10.4 | 0.00 | 0.11 | 0.11 | 41 | 1003.5 |
| 20260507194555 | 62 | 311 | 4.3 | 6.1 | 0.00 | 0.11 | 0.11 | 47 | 1003.5 |
| 20260507194051 | 61 | 346 | 2.6 | 7.0 | 0.00 | 0.11 | 0.11 | 46 | 1003.5 |
| 20260507193549 | 59 | 313 | 1.7 | 6.1 | 0.00 | 0.11 | 0.11 | 51 | 1003.3 |
| 20260507193046 | 60 | 330 | 0.0 | 4.3 | 0.00 | 0.11 | 0.11 | 54 | 1003.6 |
| 20260507192542 | 59 | 305 | 2.6 | 7.0 | 0.00 | 0.11 | 0.11 | 53 | 1003.4 |
| 20260507192039 | 59 | 15 | 3.5 | 6.1 | 0.00 | 0.11 | 0.11 | 55 | 1003.5 |
| 20260507191534 | 60 | 259 | 9.6 | 11.3 | 0.00 | 0.11 | 0.11 | 52 | 1003.5 |
| 20260507191032 | 60 | 304 | 5.2 | 10.4 | 0.00 | 0.11 | 0.11 | 52 | 1003.5 |
| 20260507190529 | 61 | 215 | 3.5 | 8.7 | 0.00 | 0.11 | 0.11 | 52 | 1003.4 |
| 20260507190027 | 63 | 345 | 1.7 | 5.2 | 0.00 | 0.11 | 0.11 | 51 | 1003.4 |
| 20260507185525 | 62 | 213 | 0.0 | 7.0 | 0.00 | 0.11 | 0.11 | 48 | 1003.3 |
| 20260507185021 | 62 | 309 | 3.5 | 5.2 | 0.00 | 0.11 | 0.11 | 47 | 1003.4 |
| 20260507184520 | 62 | 184 | 2.6 | 5.2 | 0.00 | 0.11 | 0.11 | 50 | 1003.3 |
| 20260507184017 | 63 | 313 | 7.0 | 7.8 | 0.00 | 0.11 | 0.11 | 49 | 1003.5 |
| 20260507183513 | 62 | 190 | 4.3 | 6.1 | 0.00 | 0.11 | 0.11 | 50 | 1003.3 |
| 20260507183011 | 61 | 291 | 3.5 | 7.8 | 0.00 | 0.11 | 0.11 | 51 | 1003.4 |
| 20260507182507 | 61 | 341 | 3.5 | 7.0 | 0.00 | 0.11 | 0.11 | 50 | 1003.2 |
| 20260507182002 | 60 | 286 | 2.6 | 8.7 | 0.00 | 0.11 | 0.11 | 51 | 1003.6 |
| 20260507181459 | 62 | 296 | 3.5 | 5.2 | 0.00 | 0.11 | 0.11 | 48 | 1003.6 |
| 20260507180956 | 61 | 246 | 1.7 | 7.0 | 0.00 | 0.11 | 0.11 | 49 | 1003.6 |
| 20260507180452 | 60 | 231 | 2.6 | 9.6 | 0.00 | 0.11 | 0.11 | 51 | 1003.8 |
| 20260507175948 | 60 | 347 | 3.5 | 4.3 | 0.00 | 0.11 | 0.11 | 51 | 1003.7 |
| 20260507175445 | 60 | 320 | 2.6 | 14.8 | 0.00 | 0.11 | 0.11 | 52 | 1003.8 |
| 20260507174943 | 61 | 271 | 5.2 | 9.6 | 0.00 | 0.11 | 0.11 | 49 | 1004.1 |
| 20260507174440 | 61 | 322 | 4.3 | 5.2 | 0.00 | 0.11 | 0.11 | 51 | 1003.7 |
| 20260507173937 | 60 | 251 | 3.5 | 7.0 | 0.00 | 0.11 | 0.11 | 51 | 1003.7 |
| 20260507173434 | 61 | 253 | 2.6 | 5.2 | 0.00 | 0.11 | 0.11 | 52 | 1003.8 |
| 20260507172932 | 60 | 242 | 7.8 | 10.4 | 0.00 | 0.11 | 0.11 | 50 | 1003.7 |
| 20260507172428 | 60 | 246 | 7.8 | 9.6 | 0.00 | 0.11 | 0.11 | 49 | 1003.8 |
| 20260507171924 | 62 | 235 | 3.5 | 7.0 | 0.00 | 0.11 | 0.11 | 47 | 1003.9 |
| 20260507171420 | 62 | 223 | 7.0 | 9.6 | 0.00 | 0.11 | 0.11 | 47 | 1003.9 |
| 20260507170918 | 62 | 225 | 7.8 | 10.4 | 0.00 | 0.11 | 0.11 | 49 | 1003.9 |
| 20260507170414 | 60 | 7 | 0.9 | 5.2 | 0.00 | 0.11 | 0.11 | 56 | 1004.1 |
| 20260507165910 | 59 | 233 | 1.7 | 9.6 | 0.00 | 0.11 | 0.11 | 51 | 1003.9 |
| 20260507165406 | 59 | 307 | 0.0 | 3.5 | 0.00 | 0.11 | 0.11 | 56 | 1004.0 |
| 20260507164902 | 60 | 297 | 2.6 | 3.5 | 0.00 | 0.11 | 0.11 | 55 | 1004.1 |
| 20260507164359 | 58 | 200 | 4.3 | 4.3 | 0.00 | 0.11 | 0.11 | 56 | 1004.3 |
| 20260507163857 | 59 | 201 | 0.0 | 3.5 | 0.00 | 0.11 | 0.11 | 55 | 1004.3 |
| 20260507163354 | 59 | 77 | 1.7 | 3.5 | 0.00 | 0.11 | 0.11 | 56 | 1004.3 |
| 20260507162850 | 59 | 143 | 1.7 | 3.5 | 0.00 | 0.11 | 0.11 | 56 | 1004.4 |
| 20260507162346 | 59 | 254 | 1.7 | 3.5 | 0.00 | 0.11 | 0.11 | 57 | 1004.4 |
| 20260507161843 | 58 | 231 | 0.0 | 7.8 | 0.00 | 0.11 | 0.11 | 59 | 1004.5 |
| 20260507161340 | 58 | 339 | 2.6 | 5.2 | 0.00 | 0.11 | 0.11 | 58 | 1004.7 |
| 20260507160836 | 59 | 334 | 1.7 | 3.5 | 0.00 | 0.11 | 0.11 | 59 | 1004.7 |
| 20260507160332 | 59 | 298 | 3.5 | 7.8 | 0.00 | 0.11 | 0.11 | 57 | 1004.7 |
| 20260507155829 | 59 | 306 | 2.6 | 4.3 | 0.00 | 0.11 | 0.11 | 56 | 1004.9 |
| 20260507155324 | 58 | 125 | 2.6 | 8.7 | 0.00 | 0.11 | 0.11 | 58 | 1004.9 |
| 20260507154821 | 60 | 313 | 1.7 | 7.0 | 0.00 | 0.11 | 0.11 | 55 | 1005.0 |
| 20260507154319 | 61 | 65 | 1.7 | 4.3 | 0.00 | 0.11 | 0.11 | 55 | 1004.9 |
| 20260507153815 | 60 | 251 | 2.6 | 3.5 | 0.00 | 0.11 | 0.11 | 60 | 1005.0 |
| 20260507153312 | 58 | 100 | 0.9 | 7.0 | 0.00 | 0.11 | 0.11 | 59 | 1005.1 |
| 20260507152808 | 59 | 161 | 2.6 | 4.3 | 0.00 | 0.11 | 0.11 | 57 | 1005.0 |
| 20260507152306 | 59 | 321 | 1.7 | 4.3 | 0.00 | 0.11 | 0.11 | 59 | 1004.9 |
| 20260507151800 | 58 | 180 | 0.9 | 4.3 | 0.00 | 0.11 | 0.11 | 62 | 1005.0 |
| 20260507151257 | 59 | 107 | 5.2 | 5.2 | 0.00 | 0.11 | 0.11 | 58 | 1005.1 |
| 20260507150754 | 59 | 312 | 1.7 | 4.3 | 0.00 | 0.11 | 0.11 | 58 | 1005.2 |
| 20260507150251 | 58 | 7 | 2.6 | 7.0 | 0.00 | 0.11 | 0.11 | 58 | 1005.3 |
| 20260507145747 | 57 | 37 | 6.1 | 7.0 | 0.00 | 0.11 | 0.11 | 58 | 1005.3 |
| 20260507145243 | 58 | 54 | 3.5 | 4.3 | 0.00 | 0.11 | 0.11 | 58 | 1005.3 |
| 20260507144741 | 57 | 26 | 0.9 | 3.5 | 0.00 | 0.11 | 0.11 | 64 | 1005.3 |
| 20260507144238 | 56 | 6 | 5.2 | 9.6 | 0.00 | 0.11 | 0.11 | 61 | 1005.3 |
| 20260507143734 | 56 | 310 | 3.5 | 5.2 | 0.00 | 0.11 | 0.11 | 63 | 1005.7 |
| 20260507143232 | 56 | 2 | 5.2 | 9.6 | 0.00 | 0.11 | 0.11 | 66 | 1005.5 |
| 20260507142728 | 55 | 329 | 2.6 | 9.6 | 0.00 | 0.11 | 0.11 | 62 | 1005.6 |
| 20260507142224 | 55 | 14 | 5.2 | 7.8 | 0.00 | 0.11 | 0.11 | 61 | 1005.8 |
| 20260507141720 | 56 | 329 | 1.7 | 3.5 | 0.00 | 0.11 | 0.11 | 64 | 1005.7 |
| 20260507141218 | 56 | 323 | 5.2 | 7.8 | 0.00 | 0.11 | 0.11 | 61 | 1005.7 |
| 20260507140714 | 55 | 0 | 1.7 | 6.1 | 0.00 | 0.11 | 0.11 | 67 | 1005.7 |
| 20260507140212 | 55 | 286 | 1.7 | 5.2 | 0.00 | 0.11 | 0.11 | 65 | 1006.0 |
| 20260507135708 | 55 | 170 | 1.7 | 6.1 | 0.00 | 0.11 | 0.11 | 66 | 1006.0 |
| 20260507135206 | 54 | 359 | 1.7 | 5.2 | 0.00 | 0.11 | 0.11 | 71 | 1005.8 |
| 20260507134702 | 54 | 39 | 0.9 | 5.2 | 0.00 | 0.11 | 0.11 | 67 | 1005.7 |
| 20260507134158 | 55 | 17 | 3.5 | 4.3 | 0.00 | 0.11 | 0.11 | 68 | 1005.7 |
| 20260507133654 | 54 | 51 | 2.6 | 5.2 | 0.00 | 0.11 | 0.11 | 68 | 1005.8 |
| 20260507133152 | 55 | 58 | 2.6 | 4.3 | 0.00 | 0.11 | 0.11 | 67 | 1005.8 |
| 20260507132649 | 54 | 98 | 0.9 | 3.5 | 0.00 | 0.11 | 0.11 | 68 | 1005.8 |
| 20260507132145 | 54 | 41 | 3.5 | 3.5 | 0.00 | 0.11 | 0.11 | 68 | 1006.0 |
| 20260507131643 | 55 | 53 | 3.5 | 4.3 | 0.00 | 0.11 | 0.11 | 67 | 1005.9 |
| 20260507131140 | 53 | 50 | 4.3 | 5.2 | 0.00 | 0.11 | 0.11 | 69 | 1006.1 |
| 20260507130636 | 52 | 359 | 3.5 | 5.2 | 0.00 | 0.11 | 0.11 | 68 | 1006.2 |
| 20260507130134 | 53 | 333 | 1.7 | 5.2 | 0.00 | 0.11 | 0.11 | 73 | 1006.0 |
| 20260507125633 | 52 | 237 | 1.7 | 5.2 | 0.00 | 0.11 | 0.11 | 74 | 1006.2 |
| 20260507125130 | 53 | 280 | 3.5 | 5.2 | 0.00 | 0.11 | 0.11 | 69 | 1006.3 |
| 20260507124626 | 52 | 21 | 3.5 | 3.5 | 0.00 | 0.11 | 0.11 | 73 | 1006.3 |
| 20260507124124 | 53 | 31 | 4.3 | 5.2 | 0.00 | 0.11 | 0.11 | 72 | 1006.1 |
| 20260507123622 | 51 | 333 | 2.6 | 5.2 | 0.00 | 0.11 | 0.11 | 74 | 1006.2 |
| 20260507123118 | 52 | 314 | 3.5 | 4.3 | 0.00 | 0.11 | 0.11 | 73 | 1006.1 |
| 20260507122613 | 52 | 29 | 4.3 | 5.2 | 0.00 | 0.11 | 0.11 | 71 | 1006.0 |
| 20260507122109 | 51 | 66 | 3.5 | 5.2 | 0.00 | 0.11 | 0.11 | 76 | 1006.1 |
| 20260507121606 | 51 | 345 | 5.2 | 5.2 | 0.00 | 0.11 | 0.11 | 76 | 1006.4 |
| 20260507121102 | 50 | 353 | 6.1 | 7.8 | 0.00 | 0.11 | 0.11 | 77 | 1006.3 |
| 20260507120558 | 51 | 352 | 3.5 | 4.3 | 0.00 | 0.11 | 0.11 | 78 | 1006.3 |
| 20260507120055 | 50 | 19 | 6.1 | 8.7 | 0.00 | 0.11 | 0.11 | 77 | 1006.5 |
| 20260507115551 | 50 | 54 | 0.0 | 4.3 | 0.00 | 0.11 | 0.11 | 80 | 1006.6 |
| 20260507115047 | 50 | 14 | 3.5 | 6.1 | 0.00 | 0.11 | 0.11 | 80 | 1006.4 |
| 20260507114543 | 49 | 295 | 4.3 | 7.8 | 0.00 | 0.11 | 0.11 | 77 | 1006.5 |
| 20260507114040 | 49 | 207 | 1.7 | 5.2 | 0.00 | 0.11 | 0.11 | 79 | 1006.4 |
| 20260507113537 | 49 | 8 | 0.9 | 7.0 | 0.00 | 0.11 | 0.11 | 82 | 1006.4 |
| 20260507113035 | 49 | 262 | 2.6 | 9.6 | 0.00 | 0.11 | 0.11 | 82 | 1006.3 |
| 20260507112532 | 48 | 38 | 2.6 | 5.2 | 0.00 | 0.11 | 0.11 | 82 | 1006.6 |
| 20260507112029 | 49 | 100 | 0.9 | 1.7 | 0.00 | 0.11 | 0.11 | 84 | 1006.7 |
| 20260507111526 | 48 | 140 | 0.9 | 1.7 | 0.00 | 0.11 | 0.11 | 88 | 1006.8 |
| 20260507111022 | 47 | 142 | 1.7 | 2.6 | 0.00 | 0.11 | 0.11 | 89 | 1006.6 |
| 20260507110519 | 47 | 359 | 0.9 | 2.6 | 0.00 | 0.11 | 0.11 | 87 | 1006.6 |
| 20260507110016 | 48 | 54 | 1.7 | 2.6 | 0.00 | 0.11 | 0.11 | 86 | 1006.6 |
| 20260507105513 | 48 | 210 | 1.7 | 3.5 | 0.00 | 0.11 | 0.11 | 87 | 1006.5 |
| 20260507105009 | 49 | 73 | 2.6 | 3.5 | 0.00 | 0.11 | 0.11 | 99 | 1006.2 |
| 20260507104506 | 47 | 93 | 0.9 | 1.7 | 0.00 | 0.11 | 0.11 | 99 | 1006.5 |
| 20260507104002 | 49 | 84 | 0.0 | 1.7 | 0.00 | 0.11 | 0.11 | 99 | 1006.5 |
| 20260507103459 | 47 | 81 | 1.7 | 1.7 | 0.00 | 0.11 | 0.11 | 99 | 1006.6 |
| 20260507102955 | 46 | 114 | 1.7 | 1.7 | 0.00 | 0.11 | 0.11 | 99 | 1006.7 |
| 20260507102452 | 45 | 66 | 0.0 | 1.7 | 0.00 | 0.11 | 0.11 | 99 | 1006.6 |
| 20260507101948 | 45 | 71 | 0.9 | 1.7 | 0.00 | 0.11 | 0.11 | 99 | 1006.1 |
| 20260507101443 | 45 | 68 | 0.9 | 1.7 | 0.00 | 0.11 | 0.11 | 99 | 1006.0 |
| 20260507100940 | 45 | 138 | 1.7 | 2.6 | 0.00 | 0.11 | 0.11 | 99 | 1005.9 |
| 20260507100438 | 44 | 74 | 1.7 | 1.7 | 0.00 | 0.11 | 0.11 | 99 | 1006.2 |
| 20260507095936 | 44 | 132 | 0.0 | 3.5 | 0.00 | 0.11 | 0.11 | 99 | 1005.9 |
| 20260507095433 | 44 | 23 | 2.6 | 3.5 | 0.00 | 0.11 | 0.11 | 99 | 1005.9 |
| 20260507094930 | 44 | 94 | 1.7 | 2.6 | 0.00 | 0.11 | 0.11 | 99 | 1006.2 |
| 20260507094426 | 44 | 86 | 1.7 | 1.7 | 0.00 | 0.11 | 0.11 | 99 | 1005.8 |
| 20260507093923 | 44 | 33 | 0.0 | 1.7 | 0.00 | 0.11 | 0.11 | 99 | 1006.3 |
| 20260507093421 | 44 | 115 | 1.7 | 1.7 | 0.00 | 0.11 | 0.11 | 99 | 1006.0 |
| 20260507092919 | 44 | 104 | 2.6 | 2.6 | 0.00 | 0.11 | 0.11 | 99 | 1006.0 |
| 20260507092415 | 44 | 44 | 0.9 | 1.7 | 0.00 | 0.11 | 0.11 | 99 | 1005.9 |
| 20260507091912 | 44 | 18 | 1.7 | 2.6 | 0.00 | 0.11 | 0.11 | 99 | 1005.9 |
| 20260507091408 | 44 | 321 | 1.7 | 1.7 | 0.00 | 0.11 | 0.11 | 99 | 1006.0 |
| 20260507090904 | 44 | 225 | 0.0 | 1.7 | 0.00 | 0.11 | 0.11 | 99 | 1006.2 |
| 20260507090400 | 44 | 77 | 0.0 | 1.7 | 0.00 | 0.11 | 0.11 | 99 | 1006.1 |
| 20260507085857 | 45 | 57 | 0.9 | 1.7 | 0.00 | 0.11 | 0.11 | 99 | 1006.3 |
| 20260507085354 | 45 | 202 | 0.0 | 1.7 | 0.00 | 0.11 | 0.11 | 99 | 1006.3 |
| 20260507084851 | 45 | 97 | 0.0 | 1.7 | 0.00 | 0.11 | 0.11 | 99 | 1006.0 |
| 20260507084348 | 45 | 62 | 0.0 | 2.6 | 0.00 | 0.11 | 0.11 | 99 | 1005.6 |
| 20260507083845 | 45 | 126 | 1.7 | 2.6 | 0.00 | 0.11 | 0.11 | 99 | 1005.8 |
| 20260507083341 | 45 | 67 | 1.7 | 3.5 | 0.00 | 0.11 | 0.11 | 99 | 1005.5 |
| 20260507082838 | 45 | 28 | 0.0 | 1.7 | 0.00 | 0.11 | 0.11 | 99 | 1005.4 |
| 20260507082333 | 45 | 64 | 3.5 | 3.5 | 0.02 | 0.11 | 0.11 | 99 | 1005.7 |
| 20260507081831 | 45 | 104 | 2.6 | 4.3 | 0.02 | 0.11 | 0.11 | 99 | 1005.6 |
| 20260507081326 | 45 | 23 | 2.6 | 3.5 | 0.00 | 0.11 | 0.11 | 99 | 1005.8 |
| 20260507080823 | 45 | 25 | 2.6 | 3.5 | 0.00 | 0.11 | 0.11 | 99 | 1005.8 |
| 20260507080320 | 46 | 347 | 1.7 | 3.5 | 0.02 | 0.11 | 0.11 | 99 | 1005.8 |
| 20260507075815 | 46 | 7 | 5.2 | 5.2 | 0.00 | 0.11 | 0.11 | 99 | 1005.6 |
| 20260507075312 | 46 | 34 | 2.6 | 3.5 | 0.02 | 0.11 | 0.11 | 99 | 1006.1 |
| 20260507074808 | 47 | 85 | 1.7 | 1.7 | 0.02 | 0.11 | 0.11 | 99 | 1005.8 |
| 20260507074306 | 47 | 86 | 1.7 | 1.7 | 0.00 | 0.10 | 0.10 | 99 | 1006.2 |
| 20260507073803 | 47 | 79 | 0.0 | 0.9 | 0.02 | 0.10 | 0.10 | 99 | 1006.0 |
| 20260507073259 | 47 | 55 | 1.7 | 1.7 | 0.02 | 0.10 | 0.10 | 99 | 1005.5 |
| 20260507072757 | 47 | 83 | 0.9 | 2.6 | 0.02 | 0.10 | 0.10 | 99 | 1005.7 |
| 20260507072254 | 47 | 61 | 1.7 | 2.6 | 0.02 | 0.10 | 0.10 | 99 | 1005.7 |
| 20260507071751 | 47 | 137 | 1.7 | 1.7 | 0.02 | 0.09 | 0.09 | 99 | 1005.7 |
| 20260507071248 | 47 | 43 | 1.7 | 3.5 | 0.02 | 0.09 | 0.09 | 99 | 1005.6 |
| 20260507070745 | 47 | 38 | 0.9 | 1.7 | 0.02 | 0.09 | 0.09 | 99 | 1005.4 |
| 20260507070242 | 47 | 83 | 1.7 | 1.7 | 0.02 | 0.09 | 0.09 | 99 | 1005.2 |
| 20260507065738 | 47 | 25 | 1.7 | 1.7 | 0.02 | 0.09 | 0.09 | 99 | 1005.2 |
| 20260507065235 | 47 | 18 | 0.9 | 1.7 | 0.02 | 0.09 | 0.09 | 99 | 1005.3 |
| 20260507064732 | 47 | 55 | 4.3 | 4.3 | 0.02 | 0.08 | 0.08 | 99 | 1005.1 |
| 20260507064231 | 47 | 53 | 1.7 | 3.5 | 0.02 | 0.08 | 0.08 | 99 | 1005.3 |
| 20260507063728 | 47 | 57 | 0.9 | 1.7 | 0.02 | 0.08 | 0.08 | 99 | 1005.3 |
| 20260507063225 | 47 | 20 | 1.7 | 2.6 | 0.02 | 0.08 | 0.08 | 99 | 1005.1 |
| 20260507062722 | 47 | 62 | 1.7 | 1.7 | 0.02 | 0.07 | 0.07 | 99 | 1005.0 |
| 20260507062219 | 48 | 74 | 0.0 | 1.7 | 0.05 | 0.07 | 0.07 | 99 | 1005.1 |
| 20260507061717 | 47 | 29 | 1.7 | 2.6 | 0.02 | 0.07 | 0.07 | 99 | 1005.2 |
| 20260507061215 | 47 | 54 | 1.7 | 1.7 | 0.02 | 0.07 | 0.07 | 99 | 1005.1 |
| 20260507060713 | 47 | 25 | 2.6 | 3.5 | 0.02 | 0.07 | 0.07 | 99 | 1004.7 |
| 20260507060209 | 48 | 44 | 2.6 | 4.3 | 0.02 | 0.06 | 0.06 | 99 | 1004.9 |
| 20260507055705 | 48 | 61 | 2.6 | 3.5 | 0.05 | 0.06 | 0.06 | 99 | 1004.6 |
| 20260507055200 | 48 | 26 | 5.2 | 5.2 | 0.02 | 0.06 | 0.06 | 99 | 1004.9 |
| 20260507054657 | 48 | 41 | 2.6 | 3.5 | 0.02 | 0.06 | 0.06 | 99 | 1004.9 |
| 20260507054154 | 48 | 38 | 2.6 | 2.6 | 0.02 | 0.06 | 0.06 | 99 | 1005.1 |
| 20260507053652 | 48 | 46 | 3.5 | 4.3 | 0.02 | 0.05 | 0.05 | 99 | 1005.0 |
| 20260507053150 | 48 | 53 | 1.7 | 2.6 | 0.05 | 0.05 | 0.05 | 99 | 1004.9 |
| 20260507052648 | 48 | 99 | 1.7 | 5.2 | 0.02 | 0.05 | 0.05 | 99 | 1005.0 |
| 20260507052143 | 48 | 0 | 2.6 | 7.8 | 0.02 | 0.04 | 0.04 | 99 | 1005.2 |
| 20260507051641 | 48 | 0 | 1.7 | 3.5 | 0.02 | 0.04 | 0.04 | 99 | 1005.4 |
| 20260507051138 | 48 | 14 | 1.7 | 2.6 | 0.02 | 0.04 | 0.04 | 99 | 1005.4 |
| 20260507050635 | 48 | 67 | 0.9 | 2.6 | 0.02 | 0.04 | 0.04 | 99 | 1005.4 |
| 20260507050131 | 49 | 59 | 2.6 | 5.2 | 0.02 | 0.03 | 0.03 | 99 | 1005.1 |
| 20260507045629 | 49 | 256 | 1.7 | 3.5 | 0.02 | 0.03 | 0.03 | 99 | 1005.5 |
| 20260507045125 | 49 | 31 | 2.6 | 4.3 | 0.02 | 0.03 | 0.03 | 99 | 1005.5 |
| 20260507044622 | 49 | 30 | 1.7 | 5.2 | 0.02 | 0.02 | 0.02 | 99 | 1005.1 |
| 20260507044119 | 49 | 23 | 3.5 | 5.2 | 0.05 | 0.02 | 0.02 | 99 | 1005.1 |
| 20260507043615 | 49 | 166 | 0.0 | 3.5 | 0.02 | 0.02 | 0.02 | 99 | 1004.9 |
| 20260507043112 | 49 | 42 | 4.3 | 7.0 | 0.02 | 0.02 | 0.02 | 99 | 1004.8 |
| 20260507042608 | 49 | 80 | 3.5 | 7.8 | 0.05 | 0.02 | 0.02 | 99 | 1004.7 |
| 20260507042103 | 50 | 88 | 1.7 | 4.3 | 0.02 | 0.01 | 0.01 | 99 | 1005.1 |
| 20260507041600 | 50 | 8 | 4.3 | 11.3 | 0.02 | 0.01 | 0.01 | 99 | 1004.8 |
| 20260507041057 | 50 | 19 | 1.7 | 4.3 | 0.02 | 0.01 | 0.01 | 99 | 1005.1 |
| 20260507040554 | 50 | 252 | 0.0 | 4.3 | 0.02 | 0.00 | 0.00 | 99 | 1005.0 |